Location: Catstown
(52.4386°N, 7.2633°W)
Time: 05:08:34
(UTC+00:00)

DMSP B5D2-2 - Pass Details

Date: 18 September 2020
Orbit: 790 x 805 km, 98.3° (Epoch: 20 October)

Event Time Altitude Azimuth Distance (km) Brightness Sun altitude
Rises 20:18:21 0° 16° (NNE) 3,334 7.4 -15.9°
Reaches altitude 10° 20:20:43 10° 19° (NNE) 2,400 6.6 -16.2°
Maximum altitude 20:26:01 68° 102° (ESE) 871 4.0 -17.0°
Drops below altitude 10° 20:31:16 10° 186° (S) 2,381 6.3 -17.7°
Sets 20:33:36 0° 189° (S) 3,307 7.1 -18.0°
